Location: Fort Wayne
(41.1310°N, 85.1290°W)
Time: 21:33:06

SR - Visible Passes

Search period start: 08 October 2015 00:00
Search period end: 18 October 2015 00:00
Orbit: 577 x 883 km, 66.7° (Epoch: 07 October)

Date Brightness Start Highest point End Pass type
(mag) Time Alt. Az. Time Alt. Az. Time Alt. Az.
14 Oct ? 07:15:14 10° N 07:18:19 15° NE 07:21:39 10° ENE visible
16 Oct ? 07:18:24 10° N 07:22:55 23° NE 07:27:38 10° E visible
17 Oct ? 06:30:12 10° N 06:33:15 15° NE 06:36:31 10° ENE visible
